Lexington Weather

Lexington, Massachusetts, USA

45°F
5/12/2021 3:44am 
  • Lexington Conditions: Clear
  • Temperature: 44.8°F / 7.1°CColder 1.2°F than last hour.
  • Dew Point: 32.5°FIncreased 1.2°Fsince last hour.
  • Relative Humidity: 62%Increased 6.0% since last hour.
  • Wind: Wind from W W Calm, 10-min avg: 1 mph, gust: 7 mph
  • Barometer: 29.92 in Steady
  • Visibility: 10 miles
  • Rain Today: 0.00 in
  •   

Regional Weather Roundup
for Boston / Norton, MA

        
000
ASUS41 KBOX 090204
RWRBOX

REGIONAL WEATHER ROUNDUP
NATIONAL WEATHER SERVICE BOSTON/NORTON MA
1000 PM EDT SAT MAY 08 2021

NOTE:  "FAIR" INDICATES FEW OR NO CLOUDS BELOW 12,000 FEET WITH NO 
SIGNIFICANT WEATHER AND/OR OBSTRUCTIONS TO VISIBILITY.

MAZALL-090300-
EASTERN MASSACHUSETTS
  
CITY           SKY/WX    TMP DP  RH WIND       PRES   REMARKS
BOSTON         CLOUDY    53  39  59 SW20      29.87S                  
BEVERLY        CLOUDY    52  38  58 SW10      29.85S                  
LAWRENCE       CLOUDY    52  37  56 SW9       29.87R                  
BEDFORD        CLOUDY    51  38  60 S12       29.86R                  
BLUE HILL        N/A     47  39  74 SW12      29.87R                  
NORWOOD        CLOUDY    51  39  63 SW9       29.89R                  
MARSHFIELD     CLOUDY    52  41  66 SW9       29.89S                  
PLYMOUTH       CLOUDY    49  38  65 SW13      29.90R                  
TAUNTON        CLOUDY    49  40  71 SW7       29.91R                  
NEW BEDFORD    CLOUDY    49  40  71 SW7       29.91R                  
$$

MAZALL-090300-
CAPE COD AND THE ISLANDS
  
CITY           SKY/WX    TMP DP  RH WIND       PRES   REMARKS
FALMOUTH       NOT AVBL                                               
HYANNIS        CLOUDY    50  42  74 SW14      29.89R                  
CHATHAM        CLOUDY    49  40  71 SW10G20   29.92R                  
PROVINCETOWN   CLOUDY    49  41  74 SW12      29.90S                  
NANTUCKET      CLOUDY    48  42  80 W12       29.93R                  
MARTHAS VNYRD  CLOUDY    48  41  76 SW7       29.93R                  
$$
 
MAZALL-090300-
CENTRAL AND WESTERN MASSACHUSETTS
  
CITY           SKY/WX    TMP DP  RH WIND       PRES   REMARKS
WORCESTER      CLOUDY    49  38  65 SW12      29.88R                  
FITCHBURG      MOCLDY    53  35  50 SW6       29.87R                  
ORANGE         CLOUDY    51  38  60 W6        29.90R                  
SPRINGFIELD    MOCLDY    51  39  64 W10       29.90R                  
WESTFIELD      CLOUDY    50  40  68 W9        29.92R                  
NORTH ADAMS    MOCLDY    46  42  86 CALM      29.93R                  
PITTSFIELD     CLOUDY    44  42  93 SW5       29.91R                  
$$
 
RIZALL-090300-
RHODE ISLAND
  
CITY           SKY/WX    TMP DP  RH WIND       PRES   REMARKS
PROVIDENCE     MOCLDY    49  41  74 SW8       29.91S                  
NEWPORT        MOCLDY    47  39  74 CALM      29.92R                  
BLOCK ISLAND   CLOUDY    47  42  83 SW7       29.95R                  
SMITHFIELD       N/A     47  43  86 W5        29.90R                  
WESTERLY       CLOUDY    47  42  83 W3        29.94R                  
$$
 
CTZALL-090300-
CONNECTICUT
  
CITY           SKY/WX    TMP DP  RH WIND       PRES   REMARKS
BRADLEY INTL   CLOUDY    50  39  66 W7        29.93R                  
HARTFORD       CLOUDY    51  41  68 SW5       29.94R                  
BRIDGEPORT     CLOUDY    50  40  68 W5        29.96R                  
DANBURY        MOCLDY    45  42  89 CALM      29.96R                  
GROTON         CLOUDY    49  40  71 W8        29.94R                  
NEW HAVEN      PTCLDY    51  42  71 W5        29.95R                  
CHESTER        CLOUDY    46  43  87 W5        29.94R                  
MERIDEN        CLOUDY    47  41  80 CALM      29.95R                  
WILLIMANTIC    MOCLDY    48  41  76 SW5       29.93R                  
OXFORD         MOCLDY    44  44 100 W3        29.95R                  
$$

MEZ002-015-021-024-NHZ003-005-008-011-012-014-VTZ005-008-090300-
NORTHERN NEW ENGLAND
  
CITY           SKY/WX    TMP DP  RH WIND       PRES   REMARKS
PORTLAND ME    CLOUDY    50  37  61 S5        29.81R                  
BANGOR ME      MOCLDY    48  33  56 NW9       29.77S                  
CONCORD NH     CLOUDY    53  34  48 W8        29.84R                  
MANCHESTER NH  CLOUDY    55  33  43 SW5       29.83S                  
NASHUA NH      CLOUDY    54  35  48 W5        29.86R                  
PORTSMOUTH NH  CLOUDY    50  36  57 SW9       29.83S                  
JAFFREY NH     CLOUDY    50  36  58 W7        29.87R                  
KEENE NH       CLOUDY    51  38  60 W5        29.89R                  
BURLINGTON VT  MOCLDY    51  40  65 NW7       29.90R                  
MT. WASHINGTON FLURRIES  25  23  93 NW38G46     N/A  WCI   6          
$$

NYZ052-076-090300-
EASTERN NEW YORK
  
CITY           SKY/WX    TMP DP  RH WIND       PRES   REMARKS
ALBANY         CLOUDY    45  40  82 W9        29.95R                  
NEW YORK CITY  MOCLDY    52  42  69 NW10      29.97R                  
$$
 
ANZALL-090300-
MARINE OBSERVATIONS
  
STATION/POSITION TIME  TEMP    WIND        PRES    VSBY  WAVE
                       AIR SEA DIR/SP/G                  HT/PER
                 (UTC) (F)     (DEG/KT/KT) (MB)    (MI)  (FT/S)
BOSTON BUOY      0140   49 47  210/ 12/ 16 1011.4R
BUZZARDS BAY     0100          210/ 13/ 15 1013.9R
NANTUCKET SOUND  0140      52                N/A
MASS BAY-STELLWA 0104   49     200/ 12/ 17 1009.9R  1 7/8  4/ 6
ISLE OF SHOALS   0100   49     210/ 21/ 23 1009.6S
S OF BLOCK IS    0126      49                N/A           4/ 9
$$

......................KEY.........................
  SKY/WX - SKY CONDITION/PRESENT WEATHER
  TMP    - TEMPERATURE IN FAHRENHEIT
  DWPT   - DEWPOINT IN FAHRENHEIT
  RH     - RELATIVE HUMIDITY IN PERCENT
  WIND   - DIRECTION AND SPEED IN MPH
  PRES   - MEAN SEA LEVEL PRESSURE IN INCHES OF HG
  WCI    - WIND CHILL INDEX
  VSB    - VISIBILITY IN MILES
  HX     - HEAT INDEX
  TC     - TEMPERATURE IN CELSIUS
  VRB    - VARIABLE WIND DIRECTION
  N/A    - NOT AVAILABLE
  
      

Other recent Regional Weather Roundups

Wed May 12, 3:04am

Wed May 12, 2:04am

Wed May 12, 1:04am

Wed May 12, 12:05am

Tue May 11, 11:05pm

Tue May 11, 10:04pm

Tue May 11, 9:05pm

Tue May 11, 8:05pm

Tue May 11, 7:04pm

Tue May 11, 6:04pm

Tue May 11, 5:04pm

Tue May 11, 4:05pm

Tue May 11, 3:04pm

Tue May 11, 2:05pm

Tue May 11, 1:04pm

Tue May 11, 12:05pm

Tue May 11, 11:05am

Tue May 11, 10:04am

Tue May 11, 9:04am

Tue May 11, 8:04am

Tue May 11, 7:05am

Tue May 11, 6:04am

Tue May 11, 5:04am

Tue May 11, 4:04am

Tue May 11, 3:04am

Tue May 11, 2:04am

Tue May 11, 1:04am

Tue May 11, 12:04am

Mon May 10, 11:04pm

Mon May 10, 10:04pm

Mon May 10, 9:05pm

Mon May 10, 8:04pm

Mon May 10, 7:05pm

Mon May 10, 6:04pm

Mon May 10, 5:04pm

Mon May 10, 4:04pm

Mon May 10, 3:04pm

Mon May 10, 2:04pm

Mon May 10, 1:04pm

Mon May 10, 12:04pm

Mon May 10, 11:05am

Mon May 10, 10:04am

Mon May 10, 9:04am

Mon May 10, 8:04am

Mon May 10, 7:04am

Mon May 10, 6:04am

Mon May 10, 5:05am

Mon May 10, 4:04am

Mon May 10, 3:04am

Mon May 10, 2:04am

Mon May 10, 1:04am

Mon May 10, 12:04am

Sun May 9, 11:04pm

Sun May 9, 10:04pm

Sun May 9, 9:04pm

Sun May 9, 8:04pm

Sun May 9, 7:05pm

Sun May 9, 6:04pm

Sun May 9, 5:04pm

Sun May 9, 4:04pm

Sun May 9, 3:04pm

Sun May 9, 2:04pm

Sun May 9, 1:05pm

Sun May 9, 12:04pm

Sun May 9, 11:05am

Sun May 9, 10:04am

Sun May 9, 9:04am

Sun May 9, 8:04am

Sun May 9, 7:04am

Sun May 9, 6:04am

Sun May 9, 5:04am

Sun May 9, 4:04am

Sun May 9, 3:04am

Sun May 9, 2:04am

Sun May 9, 1:05am

Sun May 9, 12:04am

Sat May 8, 11:05pm

Sat May 8, 9:05pm

Sat May 8, 8:04pm

Sat May 8, 7:04pm

Sat May 8, 6:04pm

Sat May 8, 5:05pm

Sat May 8, 4:04pm

Sat May 8, 3:05pm

Sat May 8, 2:05pm

Sat May 8, 1:05pm

Sat May 8, 12:04pm

Sat May 8, 11:05am

Sat May 8, 10:04am

Sat May 8, 9:04am

Sat May 8, 8:04am

Sat May 8, 7:04am

Sat May 8, 6:04am

Sat May 8, 5:04am

Sat May 8, 4:04am

Sat May 8, 3:04am

Sat May 8, 2:04am

Sat May 8, 1:05am

Sat May 8, 12:04am

Fri May 7, 11:04pm

Fri May 7, 10:05pm

Fri May 7, 9:04pm

Fri May 7, 8:04pm

Fri May 7, 7:05pm

Fri May 7, 6:04pm

Fri May 7, 5:05pm

Fri May 7, 4:04pm

Fri May 7, 3:04pm

Fri May 7, 2:05pm

Fri May 7, 1:04pm

Fri May 7, 12:04pm

Fri May 7, 11:05am

Fri May 7, 10:04am

Fri May 7, 9:04am

Fri May 7, 8:05am

Fri May 7, 7:04am

Fri May 7, 6:04am

Fri May 7, 5:04am

Fri May 7, 4:04am

Fri May 7, 3:04am

Fri May 7, 2:05am

Fri May 7, 1:04am

Fri May 7, 12:05am

Thu May 6, 11:04pm

Thu May 6, 10:04pm

Thu May 6, 9:05pm

Thu May 6, 8:04pm

Thu May 6, 7:04pm

Thu May 6, 6:04pm

Thu May 6, 5:05pm

Thu May 6, 4:04pm

Thu May 6, 3:04pm

Thu May 6, 2:05pm

Thu May 6, 1:04pm

Thu May 6, 12:04pm

Thu May 6, 11:04am

Thu May 6, 10:04am

Thu May 6, 9:04am

Thu May 6, 8:04am

Thu May 6, 7:04am

Thu May 6, 6:04am

Thu May 6, 5:04am

Thu May 6, 4:04am

Thu May 6, 3:04am

Thu May 6, 2:05am

Thu May 6, 1:04am

Thu May 6, 12:05am

Wed May 5, 11:04pm

Wed May 5, 10:04pm

Wed May 5, 9:05pm

Wed May 5, 8:04pm

Wed May 5, 7:05pm

Wed May 5, 6:04pm

Wed May 5, 5:04pm

Wed May 5, 4:04pm

Wed May 5, 3:04pm

Wed May 5, 2:05pm

Wed May 5, 1:05pm

Wed May 5, 12:04pm

Wed May 5, 11:05am

Wed May 5, 10:04am

Wed May 5, 9:04am

Wed May 5, 8:04am

Wed May 5, 7:04am

Wed May 5, 6:05am

Wed May 5, 5:04am

Wed May 5, 4:04am

Meta data:

ID: 26510db4-a12b-458c-b2b5-3d87f7e85f14
Link: https://api.weather.gov/products/26510db4-a12b-458c-b2b5-3d87f7e85f14